START_TIME,STEP,MOV.,M6,t_acc.,M7,t_acc.,M19,t_acc.,H36,t_acc.
1979-03-06 09:00:24.660 ,0,1,0.,12.0,0.,12.0,0.,12.0,0.,12.0
1979-03-06 09:00:36.660 ,0,1,0.,12.0,0.,12.0,0.,12.0,0.,12.0
1979-03-06 09:00:48.660 ,1,1,0.,12.0,0.,12.0,0.,12.0,0.,12.0
1979-03-06 09:01:00.660 ,1,1,0.,12.0,0.,12.0,0.,12.0,0.,12.0
1979-03-06 09:01:12.660 ,2,1,0.,12.0,0.,12.0,0.,12.0,0.,12.0
1979-03-06 09:01:24.660 ,2,1,0.,12.0,0.,12.0,0.,12.0,0.,12.0
1979-03-06 09:01:36.660 ,3,1,0.,12.0,0.,12.0,0.,12.0,0.,12.0
1979-03-06 09:01:48.660 ,3,1,0.,12.0,0.,12.0,0.,12.0,0.,12.0
1979-03-06 09:02:00.660 ,4,1,0.,12.0,0.,12.0,0.,12.0,0.,12.0
1979-03-06 09:02:12.660 ,4,1,0.,12.0,0.,12.0,0.,12.0,0.,12.0
1979-03-06 09:02:24.660 ,5,1,0.,12.0,0.,12.0,0.,12.0,0.,12.0
1979-03-06 09:02:36.660 ,5,1,0.,12.0,0.,12.0,0.,12.0,0.,12.0
1979-03-06 09:02:48.660 ,6,1,0.,12.0,0.,12.0,0.,12.0,0.,12.0
1979-03-06 09:03:00.660 ,6,1,0.,12.0,0.,12.0,0.,12.0,0.,12.0
1979-03-06 09:03:12.660 ,7,1,0.,12.0,0.,12.0,0.,12.0,0.,12.0
1979-03-06 09:03:24.660 ,7,1,0.,12.0,0.,12.0,0.,12.0,0.,12.0
1979-03-06 09:03:36.660 ,7,1,0.,12.0,0.,12.0,0.,12.0,0.,12.0
1979-03-06 09:03:48.660 ,7,1,0.,12.0,0.,12.0,0.,12.0,0.,12.0
1979-03-06 09:04:00.660 ,6,1,0.,12.0,0.,12.0,0.,12.0,0.,12.0
1979-03-06 09:04:12.660 ,6,1,0.,12.0,0.,12.0,0.,12.0,0.,12.0
1979-03-06 09:04:24.660 ,5,1,0.,12.0,0.,12.0,0.,12.0,0.,12.0
1979-03-06 09:04:36.660 ,5,1,0.,12.0,0.,12.0,0.,12.0,0.,12.0
1979-03-06 09:04:48.660 ,4,1,0.,12.0,0.,12.0,0.,12.0,0.,12.0
1979-03-06 09:05:00.660 ,4,1,0.,12.0,0.,12.0,0.,12.0,0.,12.0
1979-03-06 09:05:12.660 ,3,1,0.,12.0,0.,12.0,0.,12.0,0.,12.0
1979-03-06 09:05:24.660 ,3,1,0.,12.0,0.,12.0,0.,12.0,0.,12.0
1979-03-06 09:05:36.670 ,2,1,0.,12.0,0.,12.0,0.,12.0,0.,12.0
1979-03-06 09:05:48.670 ,2,1,0.,12.0,0.,12.0,0.,12.0,0.,12.0
1979-03-06 09:06:00.670 ,1,1,0.,12.0,0.,12.0,0.,12.0,0.,12.0
1979-03-06 09:06:12.670 ,1,1,0.,12.0,0.,12.0,0.,12.0,0.,12.0
1979-03-06 09:06:24.670 ,0,1,0.,12.0,0.,12.0,0.,12.0,0.,12.0
1979-03-06 09:06:36.670 ,0,1,0.,12.0,0.,12.0,0.,12.0,0.,12.0
1979-03-06 09:06:48.670 ,0,1,0.,12.0,0.,12.0,0.,12.0,0.,12.0
1979-03-06 09:07:00.670 ,0,1,0.,12.0,0.,12.0,0.,12.0,0.,12.0
1979-03-06 09:07:12.670 ,1,1,0.,12.0,0.,12.0,0.,12.0,0.,12.0
1979-03-06 09:07:24.670 ,1,1,0.,12.0,0.,12.0,0.,12.0,0.,12.0
1979-03-06 09:07:36.670 ,2,1,1.,12.0,0.,12.0,0.,12.0,0.,12.0
1979-03-06 09:07:48.670 ,2,1,0.,12.0,0.,12.0,0.,12.0,0.,12.0
1979-03-06 09:08:00.670 ,3,1,0.,12.0,0.,12.0,0.,12.0,0.,12.0
1979-03-06 09:08:12.670 ,3,1,0.,12.0,0.,12.0,0.,12.0,0.,12.0
1979-03-06 09:08:24.670 ,4,1,0.,12.0,0.,12.0,0.,12.0,0.,12.0
1979-03-06 09:08:36.670 ,4,1,0.,12.0,0.,12.0,0.,12.0,0.,12.0
1979-03-06 09:08:48.660 ,5,1,1.,12.0,0.,12.0,0.,12.0,0.,12.0
1979-03-06 09:09:00.670 ,5,1,0.,12.0,0.,12.0,0.,12.0,0.,12.0
1979-03-06 09:09:12.660 ,6,1,0.,12.0,0.,12.0,0.,12.0,0.,12.0
1979-03-06 09:09:24.670 ,6,1,0.,12.0,0.,12.0,0.,12.0,0.,12.0
1979-03-06 09:09:36.660 ,7,1,0.,12.0,0.,12.0,0.,12.0,0.,12.0
1979-03-06 09:09:48.670 ,7,1,0.,12.0,0.,12.0,0.,12.0,0.,12.0
1979-03-06 09:10:00.660 ,7,1,0.,12.0,0.,12.0,0.,12.0,0.,12.0
1979-03-06 09:10:12.670 ,7,1,0.,12.0,0.,12.0,0.,12.0,0.,12.0
1979-03-06 09:10:24.660 ,6,1,0.,12.0,0.,12.0,0.,12.0,0.,12.0
1979-03-06 09:10:36.670 ,6,1,0.,12.0,0.,12.0,0.,12.0,0.,12.0
1979-03-06 09:10:48.660 ,5,1,0.,12.0,0.,12.0,0.,12.0,0.,12.0
1979-03-06 09:11:00.670 ,5,1,0.,12.0,0.,12.0,0.,12.0,0.,12.0
1979-03-06 09:11:12.660 ,4,1,0.,12.0,0.,12.0,0.,12.0,0.,12.0
1979-03-06 09:11:24.670 ,4,1,0.,12.0,0.,12.0,0.,12.0,0.,12.0
1979-03-06 09:11:36.660 ,3,1,0.,12.0,0.,12.0,0.,12.0,0.,12.0
1979-03-06 09:11:48.670 ,3,1,1.,12.0,0.,12.0,0.,12.0,0.,12.0
1979-03-06 09:12:00.660 ,2,1,0.,12.0,0.,12.0,0.,12.0,0.,12.0
1979-03-06 09:12:12.670 ,2,1,0.,12.0,0.,12.0,0.,12.0,0.,12.0
1979-03-06 09:12:24.660 ,1,1,0.,12.0,0.,12.0,0.,12.0,0.,12.0
1979-03-06 09:12:36.670 ,1,1,0.,12.0,0.,12.0,0.,12.0,0.,12.0
1979-03-06 09:12:48.660 ,0,1,0.,12.0,0.,12.0,0.,12.0,0.,12.0
1979-03-06 09:13:00.670 ,0,1,0.,12.0,0.,12.0,0.,12.0,0.,12.0
1979-03-06 09:13:12.660 ,0,1,0.,12.0,0.,12.0,0.,12.0,0.,12.0
1979-03-06 09:13:24.670 ,0,1,0.,12.0,0.,12.0,0.,12.0,0.,12.0
1979-03-06 09:13:36.660 ,1,1,0.,12.0,0.,12.0,0.,12.0,0.,12.0
1979-03-06 09:13:48.670 ,1,1,0.,12.0,0.,12.0,0.,12.0,0.,12.0
1979-03-06 09:14:00.660 ,2,1,0.,12.0,0.,12.0,0.,12.0,0.,12.0
1979-03-06 09:14:12.660 ,2,1,0.,12.0,0.,12.0,0.,12.0,0.,12.0
1979-03-06 09:14:24.670 ,3,1,0.,12.0,0.,12.0,0.,12.0,0.,12.0
1979-03-06 09:14:36.670 ,3,1,0.,12.0,0.,12.0,0.,12.0,0.,12.0
1979-03-06 09:14:48.670 ,4,1,0.,12.0,0.,12.0,0.,12.0,0.,12.0
1979-03-06 09:15:00.670 ,4,1,0.,12.0,0.,12.0,0.,12.0,0.,12.0
1979-03-06 09:15:12.670 ,5,1,0.,12.0,0.,12.0,0.,12.0,0.,12.0
1979-03-06 09:15:24.670 ,5,1,0.,12.0,0.,12.0,0.,12.0,0.,12.0
1979-03-06 09:15:36.670 ,6,1,0.,12.0,0.,12.0,0.,12.0,0.,12.0
1979-03-06 09:15:48.670 ,6,1,0.,12.0,0.,12.0,0.,12.0,0.,12.0
1979-03-06 09:16:00.670 ,7,1,0.,12.0,0.,12.0,0.,12.0,0.,12.0
1979-03-06 09:16:12.670 ,7,1,0.,12.0,0.,12.0,0.,12.0,0.,12.0
1979-03-06 09:16:24.670 ,7,1,0.,12.0,0.,12.0,0.,12.0,0.,12.0
1979-03-06 09:16:36.670 ,7,1,0.,12.0,0.,12.0,0.,12.0,0.,12.0
1979-03-06 09:16:48.670 ,6,1,0.,12.0,0.,12.0,0.,12.0,0.,12.0
1979-03-06 09:17:00.670 ,6,1,0.,12.0,0.,12.0,0.,12.0,0.,12.0
1979-03-06 09:17:12.670 ,5,1,0.,12.0,0.,12.0,0.,12.0,0.,12.0
1979-03-06 09:17:24.670 ,5,1,0.,12.0,0.,12.0,0.,12.0,0.,12.0
1979-03-06 09:17:36.670 ,4,1,0.,12.0,0.,12.0,0.,12.0,0.,12.0
1979-03-06 09:17:48.670 ,4,1,0.,12.0,0.,12.0,0.,12.0,0.,12.0
1979-03-06 09:18:00.670 ,3,1,0.,12.0,0.,12.0,0.,12.0,0.,12.0
1979-03-06 09:18:12.670 ,3,1,0.,12.0,0.,12.0,0.,12.0,0.,12.0
1979-03-06 09:18:24.670 ,2,1,0.,12.0,0.,12.0,0.,12.0,0.,12.0
1979-03-06 09:18:36.670 ,2,1,0.,12.0,0.,12.0,0.,12.0,0.,12.0
1979-03-06 09:18:48.670 ,1,1,0.,12.0,0.,12.0,0.,12.0,0.,12.0
1979-03-06 09:19:00.670 ,1,1,0.,12.0,0.,12.0,0.,12.0,0.,12.0
1979-03-06 09:19:12.670 ,0,1,0.,12.0,0.,12.0,0.,12.0,0.,12.0
1979-03-06 09:19:24.670 ,0,1,0.,12.0,0.,12.0,0.,12.0,0.,12.0
1979-03-06 09:19:36.670 ,0,1,0.,12.0,0.,12.0,0.,12.0,0.,12.0
1979-03-06 09:19:48.670 ,0,1,0.,12.0,0.,12.0,0.,12.0,0.,12.0
1979-03-06 09:20:00.670 ,1,1,0.,12.0,0.,12.0,0.,12.0,0.,12.0
1979-03-06 09:20:12.670 ,1,1,0.,12.0,0.,12.0,0.,12.0,0.,12.0
1979-03-06 09:20:24.670 ,2,1,0.,12.0,0.,12.0,0.,12.0,0.,12.0
1979-03-06 09:20:36.670 ,2,1,0.,12.0,0.,12.0,0.,12.0,0.,12.0
1979-03-06 09:20:48.670 ,3,1,0.,12.0,0.,12.0,0.,12.0,0.,12.0
1979-03-06 09:21:00.670 ,3,1,0.,12.0,0.,12.0,0.,12.0,0.,12.0
1979-03-06 09:21:12.670 ,4,1,0.,12.0,0.,12.0,0.,12.0,0.,12.0
1979-03-06 09:21:24.670 ,4,1,0.,12.0,0.,12.0,0.,12.0,0.,12.0
1979-03-06 09:21:36.670 ,5,1,0.,12.0,0.,12.0,0.,12.0,0.,12.0
1979-03-06 09:21:48.670 ,5,1,0.,12.0,0.,12.0,0.,12.0,0.,12.0
1979-03-06 09:22:00.670 ,6,1,0.,12.0,0.,12.0,0.,12.0,0.,12.0
1979-03-06 09:22:12.670 ,6,1,0.,12.0,0.,12.0,0.,12.0,0.,12.0
1979-03-06 09:22:24.670 ,7,1,0.,12.0,0.,12.0,0.,12.0,0.,12.0
1979-03-06 09:22:36.670 ,7,1,0.,12.0,0.,12.0,0.,12.0,0.,12.0
1979-03-06 09:22:48.670 ,7,1,0.,12.0,0.,12.0,0.,12.0,0.,12.0
1979-03-06 09:23:00.670 ,7,1,0.,12.0,0.,12.0,0.,12.0,0.,12.0
1979-03-06 09:23:12.670 ,6,1,0.,12.0,0.,12.0,0.,12.0,0.,12.0
1979-03-06 09:23:24.670 ,6,1,0.,12.0,0.,12.0,0.,12.0,0.,12.0
1979-03-06 09:23:36.670 ,5,1,0.,12.0,0.,12.0,0.,12.0,0.,12.0
1979-03-06 09:23:48.670 ,5,1,0.,12.0,0.,12.0,0.,12.0,0.,12.0
1979-03-06 09:24:00.670 ,4,1,1.,12.0,0.,12.0,0.,12.0,0.,12.0
1979-03-06 09:24:12.670 ,4,1,0.,12.0,0.,12.0,0.,12.0,0.,12.0
1979-03-06 09:24:24.670 ,3,1,0.,12.0,0.,12.0,0.,12.0,0.,12.0
1979-03-06 09:24:36.670 ,3,1,0.,12.0,0.,12.0,0.,12.0,0.,12.0
1979-03-06 09:24:48.670 ,2,1,0.,12.0,0.,12.0,0.,12.0,0.,12.0
1979-03-06 09:25:00.670 ,2,1,0.,12.0,0.,12.0,0.,12.0,0.,12.0
1979-03-06 09:25:12.670 ,1,1,0.,12.0,0.,12.0,0.,12.0,0.,12.0
1979-03-06 09:25:24.670 ,1,1,0.,12.0,0.,12.0,0.,12.0,0.,12.0
1979-03-06 09:25:36.670 ,0,1,0.,12.0,0.,12.0,0.,12.0,0.,12.0
1979-03-06 09:25:48.670 ,0,1,0.,12.0,0.,12.0,0.,12.0,0.,12.0
1979-03-06 09:26:00.670 ,0,1,0.,12.0,0.,12.0,0.,12.0,0.,12.0
1979-03-06 09:26:12.670 ,0,1,0.,12.0,0.,12.0,0.,12.0,0.,12.0
1979-03-06 09:26:24.670 ,1,1,0.,12.0,0.,12.0,0.,12.0,0.,12.0
1979-03-06 09:26:36.670 ,1,1,0.,12.0,0.,12.0,0.,12.0,0.,12.0
1979-03-06 09:26:48.670 ,2,1,0.,12.0,0.,12.0,0.,12.0,0.,12.0
1979-03-06 09:27:00.670 ,2,1,0.,12.0,0.,12.0,0.,12.0,0.,12.0
1979-03-06 09:27:12.670 ,3,1,0.,12.0,0.,12.0,0.,12.0,0.,12.0
1979-03-06 09:27:24.670 ,3,1,0.,12.0,0.,12.0,0.,12.0,0.,12.0
1979-03-06 09:27:36.670 ,4,1,0.,12.0,0.,12.0,0.,12.0,0.,12.0
1979-03-06 09:27:48.670 ,4,1,0.,12.0,0.,12.0,0.,12.0,0.,12.0
1979-03-06 09:28:00.670 ,5,1,0.,12.0,0.,12.0,0.,12.0,0.,12.0
1979-03-06 09:28:12.670 ,5,1,0.,12.0,0.,12.0,0.,12.0,0.,12.0
1979-03-06 09:28:24.670 ,6,1,0.,12.0,0.,12.0,0.,12.0,0.,12.0
1979-03-06 09:28:36.670 ,6,1,0.,12.0,0.,12.0,0.,12.0,0.,12.0
1979-03-06 09:28:48.670 ,7,1,0.,12.0,0.,12.0,0.,12.0,0.,12.0
1979-03-06 09:29:00.670 ,7,1,0.,12.0,0.,12.0,0.,12.0,0.,12.0
1979-03-06 09:29:12.670 ,7,1,0.,12.0,0.,12.0,0.,12.0,0.,12.0
1979-03-06 09:29:24.670 ,7,1,0.,12.0,0.,12.0,0.,12.0,0.,12.0
1979-03-06 09:29:36.670 ,6,1,0.,12.0,0.,12.0,0.,12.0,0.,12.0
1979-03-06 09:29:48.670 ,6,1,0.,12.0,0.,12.0,0.,12.0,0.,12.0
1979-03-06 09:30:00.670 ,5,1,0.,12.0,0.,12.0,0.,12.0,0.,12.0
1979-03-06 09:30:12.670 ,5,1,0.,12.0,0.,12.0,0.,12.0,0.,12.0
1979-03-06 09:30:24.670 ,4,1,0.,12.0,0.,12.0,0.,12.0,0.,12.0
1979-03-06 09:30:36.670 ,4,1,0.,12.0,0.,12.0,0.,12.0,0.,12.0
1979-03-06 09:30:48.670 ,3,1,0.,12.0,0.,12.0,0.,12.0,0.,12.0
1979-03-06 09:31:00.670 ,3,1,1.,12.0,0.,12.0,0.,12.0,0.,12.0
1979-03-06 09:31:12.670 ,2,1,0.,12.0,0.,12.0,0.,12.0,0.,12.0
1979-03-06 09:31:24.670 ,2,1,0.,12.0,0.,12.0,0.,12.0,0.,12.0
1979-03-06 09:31:36.670 ,1,1,0.,12.0,0.,12.0,0.,12.0,0.,12.0
1979-03-06 09:31:48.670 ,1,1,0.,12.0,0.,12.0,0.,12.0,0.,12.0
1979-03-06 09:32:00.670 ,0,1,0.,12.0,0.,12.0,0.,12.0,0.,12.0
1979-03-06 09:32:12.670 ,0,1,0.,12.0,0.,12.0,0.,12.0,0.,12.0
1979-03-06 09:32:24.670 ,0,1,0.,12.0,0.,12.0,0.,12.0,0.,12.0
1979-03-06 09:32:36.670 ,0,1,0.,12.0,0.,12.0,0.,12.0,0.,12.0
1979-03-06 09:32:48.670 ,1,1,0.,12.0,0.,12.0,0.,12.0,0.,12.0
1979-03-06 09:33:00.670 ,1,1,0.,12.0,0.,12.0,0.,12.0,0.,12.0
1979-03-06 09:33:12.670 ,2,1,0.,12.0,0.,12.0,0.,12.0,0.,12.0
1979-03-06 09:33:24.670 ,2,1,0.,12.0,0.,12.0,0.,12.0,0.,12.0
1979-03-06 09:33:36.670 ,3,1,0.,12.0,0.,12.0,0.,12.0,0.,12.0
1979-03-06 09:33:48.670 ,3,1,0.,12.0,0.,12.0,0.,12.0,0.,12.0
1979-03-06 09:34:00.670 ,4,1,0.,12.0,0.,12.0,0.,12.0,0.,12.0
1979-03-06 09:34:12.670 ,4,1,0.,12.0,0.,12.0,0.,12.0,0.,12.0
1979-03-06 09:34:24.670 ,5,1,0.,12.0,0.,12.0,0.,12.0,0.,12.0
1979-03-06 09:34:36.670 ,5,1,0.,12.0,0.,12.0,0.,12.0,0.,12.0
1979-03-06 09:34:48.670 ,6,1,0.,12.0,0.,12.0,0.,12.0,0.,12.0
1979-03-06 09:35:00.670 ,6,1,0.,12.0,0.,12.0,0.,12.0,0.,12.0
1979-03-06 09:35:12.670 ,7,1,1.,12.0,0.,12.0,0.,12.0,0.,12.0
1979-03-06 09:35:24.670 ,7,1,0.,12.0,0.,12.0,0.,12.0,0.,12.0
1979-03-06 09:35:36.670 ,7,1,0.,12.0,0.,12.0,0.,12.0,0.,12.0
1979-03-06 09:35:48.670 ,7,1,0.,12.0,0.,12.0,0.,12.0,0.,12.0
1979-03-06 09:36:00.670 ,6,1,0.,12.0,0.,12.0,0.,12.0,0.,12.0
1979-03-06 09:36:12.670 ,6,1,0.,12.0,0.,12.0,0.,12.0,0.,12.0
1979-03-06 09:36:24.670 ,5,1,0.,12.0,0.,12.0,0.,12.0,0.,12.0
1979-03-06 09:36:36.670 ,5,1,0.,12.0,0.,12.0,0.,12.0,0.,12.0
1979-03-06 09:36:48.670 ,4,1,0.,12.0,0.,12.0,0.,12.0,0.,12.0
1979-03-06 09:37:00.670 ,4,1,0.,12.0,0.,12.0,0.,12.0,0.,12.0
1979-03-06 09:37:12.670 ,3,1,0.,12.0,0.,12.0,0.,12.0,0.,12.0
1979-03-06 09:37:24.670 ,3,1,0.,12.0,0.,12.0,0.,12.0,0.,12.0
1979-03-06 09:37:36.670 ,0,0,,0,,0,,0,,0
1979-03-06 09:37:48.670 ,0,0,,0,,0,,0,,0
1979-03-06 09:38:00.670 ,0,0,,0,,0,,0,,0
1979-03-06 09:38:12.670 ,0,0,,0,,0,,0,,0
1979-03-06 09:39:12.070 ,0,0,,0,,0,,0,,0
1979-03-06 09:39:24.070 ,0,0,,0,,0,,0,,0
1979-03-06 09:39:12.670 ,0,0,0.,12.0,0.,12.0,0.,12.0,0.,12.0
1979-03-06 09:39:24.670 ,0,0,0.,12.0,0.,12.0,0.,12.0,0.,12.0
1979-03-06 09:39:36.670 ,2,1,0.,12.0,0.,12.0,0.,12.0,0.,12.0
1979-03-06 09:39:48.670 ,2,1,0.,12.0,0.,12.0,0.,12.0,0.,12.0
1979-03-06 09:40:00.670 ,3,1,0.,12.0,0.,12.0,0.,12.0,0.,12.0
1979-03-06 09:40:12.670 ,3,1,0.,12.0,0.,12.0,0.,12.0,0.,12.0
1979-03-06 09:40:24.670 ,4,1,0.,12.0,0.,12.0,0.,12.0,0.,12.0
1979-03-06 09:40:36.670 ,4,1,0.,12.0,0.,12.0,0.,12.0,0.,12.0
1979-03-06 09:40:48.670 ,5,1,0.,12.0,0.,12.0,0.,12.0,0.,12.0
1979-03-06 09:41:00.670 ,5,1,0.,12.0,0.,12.0,0.,12.0,0.,12.0
1979-03-06 09:41:12.670 ,6,1,0.,12.0,0.,12.0,0.,12.0,0.,12.0
1979-03-06 09:41:24.670 ,6,1,1.,12.0,0.,12.0,0.,12.0,0.,12.0
1979-03-06 09:41:36.670 ,7,1,0.,12.0,0.,12.0,0.,12.0,0.,12.0
1979-03-06 09:41:48.670 ,7,1,0.,12.0,0.,12.0,0.,12.0,0.,12.0
1979-03-06 09:42:00.670 ,7,1,0.,12.0,0.,12.0,0.,12.0,0.,12.0
1979-03-06 09:42:12.670 ,7,1,0.,12.0,0.,12.0,0.,12.0,0.,12.0
1979-03-06 09:42:24.670 ,6,1,0.,12.0,0.,12.0,0.,12.0,0.,12.0
1979-03-06 09:42:36.670 ,6,1,0.,12.0,0.,12.0,0.,12.0,0.,12.0
1979-03-06 09:42:48.670 ,5,1,0.,12.0,0.,12.0,0.,12.0,0.,12.0
1979-03-06 09:43:00.670 ,5,1,0.,12.0,0.,12.0,0.,12.0,0.,12.0
1979-03-06 09:43:12.670 ,4,1,0.,12.0,0.,12.0,0.,12.0,0.,12.0
1979-03-06 09:43:24.670 ,4,1,0.,12.0,0.,12.0,0.,12.0,0.,12.0
1979-03-06 09:43:36.670 ,3,1,0.,12.0,0.,12.0,0.,12.0,0.,12.0
1979-03-06 09:43:48.670 ,3,1,0.,12.0,0.,12.0,0.,12.0,0.,12.0
1979-03-06 09:44:00.670 ,2,1,0.,12.0,0.,12.0,0.,12.0,0.,12.0
1979-03-06 09:44:12.670 ,2,1,0.,12.0,0.,12.0,0.,12.0,0.,12.0
1979-03-06 09:44:24.670 ,1,1,0.,12.0,0.,12.0,0.,12.0,0.,12.0
1979-03-06 09:44:36.670 ,1,1,0.,12.0,0.,12.0,0.,12.0,0.,12.0
1979-03-06 09:44:48.670 ,0,1,0.,12.0,0.,12.0,0.,12.0,0.,12.0
1979-03-06 09:45:00.670 ,0,1,0.,12.0,0.,12.0,0.,12.0,0.,12.0
1979-03-06 09:45:12.670 ,0,1,0.,12.0,0.,12.0,0.,12.0,0.,12.0
1979-03-06 09:45:24.670 ,0,1,0.,12.0,0.,12.0,0.,12.0,0.,12.0
1979-03-06 09:45:36.670 ,1,1,0.,12.0,0.,12.0,0.,12.0,0.,12.0
1979-03-06 09:45:48.670 ,1,1,0.,12.0,0.,12.0,0.,12.0,0.,12.0
1979-03-06 09:46:00.670 ,2,1,1.,12.0,0.,12.0,0.,12.0,0.,12.0
1979-03-06 09:46:12.670 ,2,1,0.,12.0,0.,12.0,0.,12.0,0.,12.0
1979-03-06 09:46:24.670 ,3,1,0.,12.0,0.,12.0,0.,12.0,0.,12.0
1979-03-06 09:46:36.670 ,3,1,0.,12.0,0.,12.0,0.,12.0,0.,12.0
1979-03-06 09:46:48.670 ,4,1,0.,12.0,0.,12.0,0.,12.0,0.,12.0
1979-03-06 09:47:00.670 ,4,1,0.,12.0,0.,12.0,0.,12.0,0.,12.0
1979-03-06 09:47:12.670 ,5,1,0.,12.0,0.,12.0,0.,12.0,0.,12.0
1979-03-06 09:47:24.670 ,5,1,0.,12.0,0.,12.0,0.,12.0,0.,12.0
1979-03-06 09:47:36.670 ,6,1,0.,12.0,0.,12.0,0.,12.0,0.,12.0
1979-03-06 09:47:48.670 ,6,1,0.,12.0,0.,12.0,0.,12.0,0.,12.0
1979-03-06 09:48:00.670 ,7,1,0.,12.0,0.,12.0,0.,12.0,0.,12.0
1979-03-06 09:48:12.670 ,7,1,0.,12.0,0.,12.0,0.,12.0,0.,12.0
1979-03-06 09:48:24.670 ,0,0,,0,,0,,0,,0
1979-03-06 09:48:36.670 ,0,0,,0,,0,,0,,0
1979-03-06 09:51:31.270 ,0,0,,0,,0,,0,,0
1979-03-06 09:51:43.270 ,0,0,,0,,0,,0,,0
1979-03-06 09:51:36.670 ,0,1,0.,12.0,0.,12.0,0.,12.0,0.,12.0
1979-03-06 09:51:48.670 ,0,1,0.,12.0,0.,12.0,0.,12.0,0.,12.0
1979-03-06 09:52:00.670 ,1,1,0.,12.0,0.,12.0,0.,12.0,0.,12.0
1979-03-06 09:52:12.670 ,1,1,0.,12.0,0.,12.0,0.,12.0,0.,12.0
1979-03-06 09:52:24.670 ,2,1,0.,12.0,0.,12.0,0.,12.0,0.,12.0
1979-03-06 09:52:36.670 ,2,1,0.,12.0,0.,12.0,0.,12.0,0.,12.0
1979-03-06 09:52:48.670 ,3,1,0.,12.0,0.,12.0,0.,12.0,0.,12.0
1979-03-06 09:53:00.670 ,3,1,0.,12.0,0.,12.0,0.,12.0,0.,12.0
1979-03-06 09:53:12.670 ,4,1,0.,12.0,0.,12.0,0.,12.0,0.,12.0
1979-03-06 09:53:24.670 ,4,1,0.,12.0,0.,12.0,0.,12.0,0.,12.0
1979-03-06 09:53:36.670 ,5,1,0.,12.0,0.,12.0,0.,12.0,0.,12.0
1979-03-06 09:53:48.670 ,5,1,0.,12.0,0.,12.0,0.,12.0,0.,12.0
1979-03-06 09:54:00.670 ,6,1,0.,12.0,0.,12.0,0.,12.0,0.,12.0
1979-03-06 09:54:12.670 ,6,1,0.,12.0,0.,12.0,0.,12.0,0.,12.0
1979-03-06 09:54:24.670 ,7,1,0.,12.0,0.,12.0,0.,12.0,0.,12.0
1979-03-06 09:54:36.670 ,7,1,0.,12.0,0.,12.0,0.,12.0,0.,12.0
1979-03-06 09:54:48.670 ,7,1,0.,12.0,0.,12.0,0.,12.0,0.,12.0
1979-03-06 09:55:00.670 ,7,1,0.,12.0,0.,12.0,0.,12.0,0.,12.0
1979-03-06 09:55:12.670 ,6,1,0.,12.0,0.,12.0,0.,12.0,0.,12.0
1979-03-06 09:55:24.670 ,6,1,0.,12.0,0.,12.0,0.,12.0,0.,12.0
1979-03-06 09:55:36.670 ,5,1,0.,12.0,0.,12.0,0.,12.0,0.,12.0
1979-03-06 09:55:48.670 ,5,1,1.,12.0,0.,12.0,0.,12.0,0.,12.0
1979-03-06 09:56:00.670 ,4,1,0.,12.0,0.,12.0,0.,12.0,0.,12.0
1979-03-06 09:56:12.670 ,4,1,0.,12.0,0.,12.0,0.,12.0,0.,12.0
1979-03-06 09:56:24.670 ,3,1,0.,12.0,0.,12.0,0.,12.0,0.,12.0
1979-03-06 09:56:36.670 ,3,1,0.,12.0,0.,12.0,0.,12.0,0.,12.0
1979-03-06 09:56:48.670 ,2,1,0.,12.0,0.,12.0,0.,12.0,0.,12.0
1979-03-06 09:57:00.670 ,2,1,0.,12.0,0.,12.0,0.,12.0,0.,12.0
1979-03-06 09:57:12.670 ,1,1,0.,12.0,0.,12.0,0.,12.0,0.,12.0
1979-03-06 09:57:24.670 ,1,1,0.,12.0,0.,12.0,0.,12.0,0.,12.0
1979-03-06 09:57:36.670 ,0,1,0.,12.0,0.,12.0,0.,12.0,0.,12.0
1979-03-06 09:57:48.670 ,0,1,0.,12.0,0.,12.0,0.,12.0,0.,12.0
1979-03-06 09:58:00.670 ,0,1,0.,12.0,0.,12.0,0.,12.0,0.,12.0
1979-03-06 09:58:12.670 ,0,1,0.,12.0,0.,12.0,0.,12.0,0.,12.0
1979-03-06 09:58:24.670 ,1,1,0.,12.0,0.,12.0,0.,12.0,0.,12.0
1979-03-06 09:58:36.670 ,1,1,0.,12.0,0.,12.0,0.,12.0,0.,12.0
1979-03-06 09:58:48.670 ,2,1,0.,12.0,0.,12.0,0.,12.0,0.,12.0
1979-03-06 09:59:00.670 ,2,1,0.,12.0,0.,12.0,0.,12.0,0.,12.0
1979-03-06 09:59:12.670 ,3,1,0.,12.0,0.,12.0,0.,12.0,0.,12.0
1979-03-06 09:59:24.670 ,3,1,0.,12.0,0.,12.0,0.,12.0,0.,12.0
1979-03-06 09:59:36.670 ,4,1,0.,12.0,0.,12.0,0.,12.0,0.,12.0
1979-03-06 09:59:48.670 ,4,1,0.,12.0,0.,12.0,0.,12.0,0.,12.0
1979-03-06 10:00:00.670 ,5,1,0.,12.0,0.,12.0,0.,12.0,0.,12.0
1979-03-06 10:00:12.670 ,5,1,0.,12.0,0.,12.0,0.,12.0,0.,12.0
1979-03-06 10:00:24.670 ,6,1,0.,12.0,0.,12.0,0.,12.0,0.,12.0
1979-03-06 10:00:36.670 ,6,1,0.,12.0,0.,12.0,0.,12.0,0.,12.0
1979-03-06 10:00:48.670 ,7,1,0.,12.0,0.,12.0,0.,12.0,0.,12.0
1979-03-06 10:01:00.670 ,7,1,0.,12.0,0.,12.0,0.,12.0,0.,12.0
1979-03-06 10:01:12.670 ,7,1,0.,12.0,0.,12.0,0.,12.0,0.,12.0
1979-03-06 10:01:24.670 ,7,1,0.,12.0,0.,12.0,0.,12.0,0.,12.0
1979-03-06 10:01:36.670 ,6,1,0.,12.0,0.,12.0,0.,12.0,0.,12.0
1979-03-06 10:01:48.670 ,6,1,0.,12.0,0.,12.0,0.,12.0,0.,12.0
1979-03-06 10:02:00.670 ,5,1,0.,12.0,0.,12.0,0.,12.0,0.,12.0
1979-03-06 10:02:12.670 ,5,1,1.,12.0,0.,12.0,0.,12.0,0.,12.0
1979-03-06 10:02:24.670 ,4,1,0.,12.0,0.,12.0,0.,12.0,0.,12.0
1979-03-06 10:02:36.670 ,4,1,0.,12.0,0.,12.0,0.,12.0,0.,12.0
1979-03-06 10:02:48.670 ,3,1,0.,12.0,0.,12.0,0.,12.0,0.,12.0
1979-03-06 10:03:00.670 ,3,1,0.,12.0,0.,12.0,0.,12.0,0.,12.0
1979-03-06 10:03:12.670 ,2,1,0.,12.0,0.,12.0,0.,12.0,0.,12.0
1979-03-06 10:03:24.670 ,2,1,0.,12.0,0.,12.0,0.,12.0,0.,12.0
1979-03-06 10:03:36.670 ,1,1,0.,12.0,0.,12.0,0.,12.0,0.,12.0
1979-03-06 10:03:48.670 ,1,1,0.,12.0,0.,12.0,0.,12.0,0.,12.0
1979-03-06 10:04:00.670 ,0,1,0.,12.0,0.,12.0,0.,12.0,0.,12.0
1979-03-06 10:04:12.670 ,0,1,0.,12.0,0.,12.0,0.,12.0,0.,12.0
1979-03-06 10:04:24.670 ,0,1,0.,12.0,0.,12.0,0.,12.0,0.,12.0
1979-03-06 10:04:36.670 ,0,1,0.,12.0,0.,12.0,0.,12.0,0.,12.0
1979-03-06 10:04:48.670 ,1,1,0.,12.0,0.,12.0,0.,12.0,0.,12.0
1979-03-06 10:05:00.670 ,1,1,0.,12.0,0.,12.0,0.,12.0,0.,12.0
1979-03-06 10:05:12.670 ,2,1,0.,12.0,0.,12.0,0.,12.0,0.,12.0
1979-03-06 10:05:24.670 ,2,1,0.,12.0,0.,12.0,0.,12.0,0.,12.0
1979-03-06 10:05:36.670 ,3,1,0.,12.0,0.,12.0,0.,12.0,0.,12.0
1979-03-06 10:05:48.670 ,3,1,0.,12.0,0.,12.0,0.,12.0,0.,12.0
1979-03-06 10:06:00.670 ,4,1,0.,12.0,0.,12.0,0.,12.0,0.,12.0
1979-03-06 10:06:12.670 ,4,1,0.,12.0,0.,12.0,0.,12.0,0.,12.0
1979-03-06 10:06:24.670 ,5,1,0.,12.0,0.,12.0,0.,12.0,0.,12.0
1979-03-06 10:06:36.670 ,5,1,0.,12.0,0.,12.0,0.,12.0,0.,12.0
1979-03-06 10:06:48.670 ,6,1,0.,12.0,0.,12.0,0.,12.0,0.,12.0
1979-03-06 10:07:00.670 ,6,1,0.,12.0,0.,12.0,0.,12.0,0.,12.0
1979-03-06 10:07:12.670 ,7,1,0.,12.0,0.,12.0,0.,12.0,0.,12.0
1979-03-06 10:07:24.670 ,7,1,0.,12.0,0.,12.0,0.,12.0,0.,12.0
1979-03-06 10:07:36.670 ,7,1,0.,12.0,0.,12.0,0.,12.0,0.,12.0
1979-03-06 10:07:48.670 ,7,1,0.,12.0,0.,12.0,0.,12.0,0.,12.0
1979-03-06 10:08:00.670 ,6,1,0.,12.0,0.,12.0,0.,12.0,0.,12.0
1979-03-06 10:08:12.670 ,6,1,0.,12.0,0.,12.0,0.,12.0,0.,12.0
1979-03-06 10:08:24.670 ,5,1,0.,12.0,0.,12.0,0.,12.0,0.,12.0
1979-03-06 10:08:36.670 ,5,1,0.,12.0,0.,12.0,0.,12.0,0.,12.0
1979-03-06 10:08:48.670 ,4,1,0.,12.0,0.,12.0,0.,12.0,0.,12.0
1979-03-06 10:09:00.670 ,4,1,0.,12.0,0.,12.0,0.,12.0,0.,12.0
1979-03-06 10:09:12.670 ,3,1,0.,12.0,0.,12.0,0.,12.0,0.,12.0
1979-03-06 10:09:24.670 ,3,1,0.,12.0,0.,12.0,0.,12.0,0.,12.0
1979-03-06 10:09:36.670 ,2,1,0.,12.0,0.,12.0,0.,12.0,0.,12.0
1979-03-06 10:09:48.670 ,2,1,0.,12.0,0.,12.0,0.,12.0,0.,12.0
1979-03-06 10:10:00.670 ,1,1,1.,12.0,0.,12.0,0.,12.0,0.,12.0
1979-03-06 10:10:12.670 ,1,1,0.,12.0,0.,12.0,0.,12.0,0.,12.0
1979-03-06 10:10:24.670 ,0,1,1.,12.0,0.,12.0,0.,12.0,0.,12.0
1979-03-06 10:10:36.670 ,0,1,0.,12.0,0.,12.0,0.,12.0,0.,12.0
1979-03-06 10:10:48.670 ,0,1,0.,12.0,0.,12.0,0.,12.0,0.,12.0
1979-03-06 10:11:00.670 ,0,1,0.,12.0,0.,12.0,0.,12.0,0.,12.0
1979-03-06 10:11:12.670 ,1,1,0.,12.0,0.,12.0,0.,12.0,0.,12.0
1979-03-06 10:11:24.670 ,1,1,0.,12.0,0.,12.0,0.,12.0,0.,12.0
1979-03-06 10:11:36.670 ,2,1,0.,12.0,0.,12.0,0.,12.0,0.,12.0
1979-03-06 10:11:48.670 ,2,1,0.,12.0,0.,12.0,0.,12.0,0.,12.0
1979-03-06 10:12:00.670 ,3,1,0.,12.0,0.,12.0,0.,12.0,0.,12.0
1979-03-06 10:12:12.670 ,3,1,0.,12.0,0.,12.0,0.,12.0,0.,12.0
1979-03-06 10:12:24.670 ,4,1,0.,12.0,0.,12.0,0.,12.0,0.,12.0
1979-03-06 10:12:36.670 ,4,1,0.,12.0,0.,12.0,0.,12.0,0.,12.0
1979-03-06 10:12:48.670 ,5,1,0.,12.0,0.,12.0,0.,12.0,0.,12.0
1979-03-06 10:13:00.670 ,5,1,0.,12.0,0.,12.0,0.,12.0,0.,12.0
1979-03-06 10:13:12.670 ,6,1,0.,12.0,0.,12.0,0.,12.0,0.,12.0
1979-03-06 10:13:24.670 ,6,1,0.,12.0,0.,12.0,0.,12.0,0.,12.0
1979-03-06 10:13:36.670 ,7,1,0.,12.0,0.,12.0,0.,12.0,0.,12.0
1979-03-06 10:13:48.670 ,7,1,0.,12.0,0.,12.0,0.,12.0,0.,12.0
1979-03-06 10:14:00.670 ,7,1,0.,12.0,0.,12.0,0.,12.0,0.,12.0
1979-03-06 10:14:12.670 ,7,1,0.,12.0,0.,12.0,0.,12.0,0.,12.0
1979-03-06 10:14:24.670 ,6,1,0.,12.0,0.,12.0,0.,12.0,0.,12.0
1979-03-06 10:14:36.670 ,6,1,0.,12.0,0.,12.0,0.,12.0,0.,12.0
1979-03-06 10:14:48.670 ,5,1,0.,12.0,0.,12.0,0.,12.0,0.,12.0
1979-03-06 10:15:00.670 ,5,1,0.,12.0,0.,12.0,0.,12.0,0.,12.0
1979-03-06 10:15:12.670 ,4,1,0.,12.0,0.,12.0,0.,12.0,0.,12.0
1979-03-06 10:15:24.670 ,4,1,0.,12.0,0.,12.0,0.,12.0,0.,12.0
1979-03-06 10:15:36.670 ,3,1,0.,12.0,0.,12.0,0.,12.0,0.,12.0
1979-03-06 10:15:48.670 ,3,1,0.,12.0,0.,12.0,0.,12.0,0.,12.0
1979-03-06 10:16:00.670 ,2,1,0.,12.0,0.,12.0,0.,12.0,0.,12.0
1979-03-06 10:16:12.670 ,2,1,0.,12.0,0.,12.0,0.,12.0,0.,12.0
1979-03-06 10:16:24.670 ,1,1,0.,12.0,0.,12.0,0.,12.0,0.,12.0
1979-03-06 10:16:36.670 ,1,1,0.,12.0,0.,12.0,0.,12.0,0.,12.0
1979-03-06 10:16:48.670 ,0,1,0.,12.0,0.,12.0,0.,12.0,0.,12.0
1979-03-06 10:17:00.670 ,0,1,0.,12.0,0.,12.0,0.,12.0,0.,12.0
1979-03-06 10:17:12.670 ,0,1,0.,12.0,0.,12.0,0.,12.0,0.,12.0
1979-03-06 10:17:24.670 ,0,1,0.,12.0,0.,12.0,0.,12.0,0.,12.0
1979-03-06 10:17:36.670 ,1,1,0.,12.0,0.,12.0,0.,12.0,0.,12.0
1979-03-06 10:17:48.670 ,1,1,0.,12.0,0.,12.0,0.,12.0,0.,12.0
1979-03-06 10:18:00.670 ,2,1,0.,12.0,0.,12.0,0.,12.0,0.,12.0
1979-03-06 10:18:12.670 ,2,1,0.,12.0,0.,12.0,0.,12.0,0.,12.0
1979-03-06 10:18:24.670 ,3,1,0.,12.0,0.,12.0,0.,12.0,0.,12.0
1979-03-06 10:18:36.670 ,3,1,0.,12.0,0.,12.0,0.,12.0,0.,12.0
1979-03-06 10:18:48.670 ,4,1,0.,12.0,0.,12.0,0.,12.0,0.,12.0
1979-03-06 10:19:00.670 ,4,1,0.,12.0,0.,12.0,0.,12.0,0.,12.0
1979-03-06 10:19:12.670 ,5,1,0.,12.0,0.,12.0,0.,12.0,0.,12.0
1979-03-06 10:19:24.670 ,5,1,0.,12.0,0.,12.0,0.,12.0,0.,12.0
1979-03-06 10:19:36.670 ,6,1,0.,12.0,0.,12.0,0.,12.0,0.,12.0
1979-03-06 10:19:48.670 ,6,1,0.,12.0,0.,12.0,0.,12.0,0.,12.0
1979-03-06 10:20:00.670 ,7,1,0.,12.0,0.,12.0,0.,12.0,0.,12.0
1979-03-06 10:20:12.670 ,7,1,0.,12.0,0.,12.0,0.,12.0,0.,12.0
1979-03-06 10:20:24.670 ,7,1,0.,12.0,0.,12.0,0.,12.0,0.,12.0
1979-03-06 10:20:36.670 ,7,1,0.,12.0,0.,12.0,0.,12.0,0.,12.0
1979-03-06 10:20:48.670 ,6,1,0.,12.0,0.,12.0,0.,12.0,0.,12.0